| time (UTC) | temp F | wind direction | speed MPH | gust MPH | rain 1hr in | rain 24hr in | rain mn in | humidity % | barometer mb |
| 20260905182531 | 57 | 212 | 5.0 | 12.0 | 0.00 | 0.00 | 0.00 | 64 | 1018.0 |
| 20260905182052 | 57 | 199 | 7.0 | 12.0 | 0.00 | 0.00 | 0.00 | 66 | 1018.1 |
| 20260905181531 | 57 | 285 | 5.0 | 9.0 | 0.00 | 0.00 | 0.00 | 65 | 1018.1 |
| 20260905181055 | 57 | 256 | 7.0 | 9.0 | 0.00 | 0.00 | 0.00 | 65 | 1018.2 |
| 20260905180535 | 57 | 246 | 4.0 | 11.0 | 0.00 | 0.00 | 0.00 | 65 | 1018.2 |
| 20260905180037 | 57 | 217 | 7.0 | 11.0 | 0.00 | 0.00 | 0.00 | 64 | 1018.1 |
| 20260905175600 | 57 | 209 | 4.0 | 11.0 | 0.00 | 0.00 | 0.00 | 65 | 1018.0 |
| 20260905175042 | 57 | 213 | 4.0 | 10.0 | 0.00 | 0.00 | 0.00 | 65 | 1018.0 |
| 20260905174527 | 57 | 243 | 7.0 | 10.0 | 0.00 | 0.00 | 0.00 | 62 | 1018.1 |
| 20260905174031 | 57 | 266 | 5.0 | 10.0 | 0.00 | 0.00 | 0.00 | 65 | 1018.1 |
| 20260905173531 | 57 | 302 | 5.0 | 9.0 | 0.00 | 0.00 | 0.00 | 66 | 1018.1 |
| 20260905173054 | 56 | 196 | 2.0 | 10.0 | 0.00 | 0.00 | 0.00 | 67 | 1018.1 |
| 20260905172539 | 56 | 205 | 5.0 | 11.0 | 0.00 | 0.00 | 0.00 | 66 | 1018.3 |
| 20260905172100 | 57 | 228 | 7.0 | 10.0 | 0.00 | 0.00 | 0.00 | 64 | 1018.3 |
| 20260905171542 | 56 | 243 | 3.0 | 9.0 | 0.00 | 0.00 | 0.00 | 65 | 1018.3 |
| 20260905171042 | 56 | 254 | 3.0 | 8.0 | 0.00 | 0.00 | 0.00 | 66 | 1018.4 |
| 20260905170542 | 56 | 276 | 5.0 | 8.0 | 0.00 | 0.00 | 0.00 | 67 | 1018.4 |
| 20260905170045 | 56 | 233 | 5.0 | 9.0 | 0.00 | 0.00 | 0.00 | 69 | 1018.5 |
| 20260905165607 | 56 | 201 | 5.0 | 11.0 | 0.00 | 0.00 | 0.00 | 68 | 1018.6 |
| 20260905165048 | 56 | 229 | 4.0 | 9.0 | 0.00 | 0.00 | 0.00 | 69 | 1018.5 |
| 20260905164551 | 56 | 254 | 4.0 | 11.0 | 0.00 | 0.00 | 0.00 | 68 | 1018.5 |
| 20260905164031 | 55 | 145 | 5.0 | 9.0 | 0.00 | 0.00 | 0.00 | 68 | 1018.5 |
| 20260905163533 | 56 | 189 | 5.0 | 10.0 | 0.00 | 0.00 | 0.00 | 68 | 1018.6 |
| 20260905163036 | 55 | 223 | 6.0 | 12.0 | 0.00 | 0.00 | 0.00 | 69 | 1018.7 |
| 20260905162559 | 55 | 184 | 7.0 | 12.0 | 0.00 | 0.00 | 0.00 | 68 | 1018.7 |
| 20260905162026 | 55 | 221 | 5.0 | 12.0 | 0.00 | 0.00 | 0.00 | 71 | 1018.9 |
| 20260905161529 | 55 | 204 | 6.0 | 12.0 | 0.00 | 0.00 | 0.00 | 69 | 1018.8 |
| 20260905161029 | 55 | 245 | 8.0 | 11.0 | 0.00 | 0.00 | 0.00 | 69 | 1018.6 |
| 20260905160530 | 55 | 211 | 5.0 | 14.0 | 0.00 | 0.00 | 0.00 | 68 | 1018.6 |
| 20260905160032 | 55 | 195 | 8.0 | 14.0 | 0.00 | 0.00 | 0.00 | 67 | 1018.7 |
| 20260905155534 | 55 | 246 | 5.0 | 15.0 | 0.00 | 0.00 | 0.00 | 68 | 1018.6 |
| 20260905155053 | 55 | 219 | 6.0 | 15.0 | 0.00 | 0.00 | 0.00 | 70 | 1018.6 |
| 20260905154534 | 55 | 269 | 4.0 | 12.0 | 0.00 | 0.00 | 0.00 | 70 | 1018.5 |
| 20260905154037 | 55 | 155 | 5.0 | 12.0 | 0.00 | 0.00 | 0.00 | 71 | 1018.6 |
| 20260905153557 | 54 | 205 | 5.0 | 11.0 | 0.00 | 0.00 | 0.00 | 70 | 1018.7 |
| 20260905151056 | 54 | 193 | 6.0 | 10.0 | 0.00 | 0.00 | 0.00 | 71 | 1019.1 |
| 20260905150601 | 54 | 183 | 1.0 | 10.0 | 0.00 | 0.00 | 0.00 | 69 | 1019.3 |
| 20260905150046 | 54 | 202 | 6.0 | 10.0 | 0.00 | 0.00 | 0.00 | 72 | 1019.4 |
| 20260905145547 | 53 | 190 | 5.0 | 11.0 | 0.00 | 0.00 | 0.00 | 72 | 1019.3 |
| 20260905145106 | 54 | 185 | 8.0 | 11.0 | 0.00 | 0.00 | 0.00 | 69 | 1019.4 |
| 20260905144607 | 54 | 230 | 5.0 | 14.0 | 0.00 | 0.00 | 0.00 | 72 | 1019.4 |
| 20260905144106 | 54 | 210 | 7.0 | 14.0 | 0.00 | 0.00 | 0.00 | 73 | 1019.4 |
| 20260905143546 | 53 | 242 | 5.0 | 9.0 | 0.00 | 0.00 | 0.00 | 75 | 1019.4 |
| 20260905143028 | 54 | 263 | 5.0 | 8.0 | 0.00 | 0.00 | 0.00 | 74 | 1019.4 |
| 20260905142551 | 53 | 231 | 5.0 | 10.0 | 0.00 | 0.00 | 0.00 | 78 | 1019.4 |
| 20260905142031 | 53 | 207 | 7.0 | 10.0 | 0.00 | 0.00 | 0.00 | 77 | 1019.3 |
| 20260905141534 | 53 | 198 | 7.0 | 9.0 | 0.00 | 0.00 | 0.00 | 77 | 1019.3 |
| 20260905141039 | 53 | 278 | 5.0 | 8.0 | 0.00 | 0.00 | 0.00 | 79 | 1019.4 |
| 20260905140603 | 53 | 250 | 3.0 | 7.0 | 0.00 | 0.00 | 0.00 | 82 | 1019.5 |
| 20260905140028 | 52 | 224 | 5.0 | 7.0 | 0.00 | 0.00 | 0.00 | 82 | 1019.4 |
| 20260905135532 | 52 | 252 | 4.0 | 10.0 | 0.00 | 0.00 | 0.00 | 83 | 1019.5 |
| 20260905135033 | 52 | 191 | 5.0 | 10.0 | 0.00 | 0.00 | 0.00 | 83 | 1019.6 |
| 20260905134533 | 52 | 211 | 6.0 | 10.0 | 0.00 | 0.00 | 0.00 | 83 | 1019.6 |
| 20260905134034 | 52 | 178 | 4.0 | 9.0 | 0.00 | 0.00 | 0.00 | 83 | 1019.5 |
| 20260905133537 | 52 | 181 | 5.0 | 9.0 | 0.00 | 0.00 | 0.00 | 86 | 1019.4 |
| 20260905133040 | 51 | 167 | 4.0 | 9.0 | 0.00 | 0.00 | 0.00 | 87 | 1019.4 |
| 20260905132541 | 51 | 188 | 2.0 | 8.0 | 0.00 | 0.00 | 0.00 | 88 | 1019.4 |
| 20260905132043 | 51 | 234 | 4.0 | 6.0 | 0.00 | 0.00 | 0.00 | 88 | 1019.6 |
| 20260905131608 | 51 | 165 | 3.0 | 6.0 | 0.00 | 0.00 | 0.00 | 89 | 1019.7 |
| 20260905131048 | 51 | 133 | 4.0 | 6.0 | 0.00 | 0.00 | 0.00 | 90 | 1019.6 |
| 20260905130528 | 50 | 191 | 2.0 | 7.0 | 0.00 | 0.00 | 0.00 | 91 | 1019.5 |
| 20260905130029 | 50 | 161 | 3.0 | 7.0 | 0.00 | 0.00 | 0.00 | 92 | 1019.5 |
| 20260905125535 | 50 | 162 | 3.0 | 5.0 | 0.00 | 0.00 | 0.00 | 93 | 1019.5 |
| 20260905125057 | 50 | 183 | 2.0 | 4.0 | 0.00 | 0.00 | 0.00 | 95 | 1019.5 |
| 20260905124539 | 50 | 151 | 2.0 | 4.0 | 0.00 | 0.00 | 0.00 | 95 | 1019.7 |
| 20260905124104 | 49 | 119 | 2.0 | 4.0 | 0.00 | 0.00 | 0.00 | 95 | 1019.9 |
| 20260905123545 | 49 | 181 | 2.0 | 5.0 | 0.00 | 0.00 | 0.00 | 95 | 1019.9 |
| 20260905123026 | 49 | 143 | 3.0 | 5.0 | 0.00 | 0.00 | 0.00 | 95 | 1019.9 |
| 20260905122532 | 49 | 131 | 1.0 | 5.0 | 0.00 | 0.00 | 0.00 | 95 | 1019.9 |
| 20260905122034 | 48 | 159 | 3.0 | 5.0 | 0.00 | 0.00 | 0.00 | 95 | 1019.8 |
| 20260905121556 | 48 | 157 | 2.0 | 4.0 | 0.00 | 0.00 | 0.00 | 96 | 1019.7 |
| 20260905121036 | 48 | 92 | 1.0 | 4.0 | 0.00 | 0.00 | 0.00 | 96 | 1019.5 |
| 20260905120537 | 48 | 109 | 2.0 | 6.0 | 0.00 | 0.00 | 0.00 | 96 | 1019.5 |
| 20260905120104 | 48 | 102 | 4.0 | 5.0 | 0.00 | 0.00 | 0.00 | 96 | 1019.5 |
| 20260905115528 | 48 | 110 | 2.0 | 4.0 | 0.00 | 0.00 | 0.00 | 96 | 1019.4 |
| 20260905115031 | 48 | 136 | 1.0 | 3.0 | 0.00 | 0.00 | 0.00 | 96 | 1019.4 |
| 20260905114534 | 48 | 124 | 1.0 | 3.0 | 0.00 | 0.00 | 0.00 | 96 | 1019.3 |
| 20260905114037 | 48 | 103 | 2.0 | 4.0 | 0.00 | 0.00 | 0.00 | 96 | 1019.4 |
| 20260905113544 | 48 | 98 | 1.0 | 3.0 | 0.00 | 0.00 | 0.00 | 96 | 1019.4 |
| 20260905113047 | 48 | 98 | 0.0 | 3.0 | 0.00 | 0.00 | 0.00 | 96 | 1019.4 |
| 20260905112608 | 48 | 118 | 2.0 | 3.0 | 0.00 | 0.00 | 0.00 | 96 | 1019.3 |
| 20260905112030 | 48 | 130 | 2.0 | 4.0 | 0.00 | 0.00 | 0.00 | 96 | 1019.2 |
| 20260905111531 | 48 | 132 | 2.0 | 4.0 | 0.00 | 0.00 | 0.00 | 96 | 1019.2 |
| 20260905111034 | 48 | 141 | 0.0 | 5.0 | 0.00 | 0.00 | 0.00 | 96 | 1019.2 |
| 20260905110533 | 47 | 136 | 3.0 | 5.0 | 0.00 | 0.00 | 0.00 | 96 | 1019.3 |
| 20260905110037 | 47 | 175 | 3.0 | 5.0 | 0.00 | 0.00 | 0.00 | 96 | 1019.2 |
| 20260905105540 | 47 | 167 | 3.0 | 5.0 | 0.00 | 0.00 | 0.00 | 96 | 1019.0 |
| 20260905105043 | 47 | 146 | 4.0 | 5.0 | 0.00 | 0.00 | 0.00 | 96 | 1018.8 |
| 20260905104603 | 47 | 120 | 3.0 | 6.0 | 0.00 | 0.00 | 0.00 | 95 | 1018.7 |
| 20260905104038 | 47 | 166 | 3.0 | 6.0 | 0.00 | 0.00 | 0.00 | 95 | 1018.6 |
| 20260905103600 | 47 | 179 | 3.0 | 10.0 | 0.00 | 0.00 | 0.00 | 95 | 1018.6 |
| 20260905103041 | 47 | 198 | 6.0 | 10.0 | 0.00 | 0.00 | 0.00 | 95 | 1018.4 |
| 20260905102543 | 47 | 217 | 5.0 | 11.0 | 0.00 | 0.00 | 0.00 | 95 | 1018.4 |
| 20260905102032 | 47 | 202 | 4.0 | 8.0 | 0.00 | 0.00 | 0.00 | 95 | 1018.4 |
| 20260905101534 | 47 | 198 | 5.0 | 9.0 | 0.00 | 0.00 | 0.00 | 95 | 1018.4 |
| 20260905101036 | 47 | 185 | 5.0 | 8.0 | 0.00 | 0.00 | 0.00 | 95 | 1018.4 |
| 20260905100538 | 47 | 171 | 3.0 | 5.0 | 0.00 | 0.00 | 0.00 | 95 | 1018.3 |
| 20260905100039 | 47 | 174 | 3.0 | 5.0 | 0.00 | 0.00 | 0.00 | 95 | 1018.2 |
| 20260905095603 | 47 | 179 | 2.0 | 5.0 | 0.00 | 0.00 | 0.00 | 95 | 1018.0 |
| 20260905095103 | 47 | 201 | 2.0 | 5.0 | 0.00 | 0.00 | 0.00 | 95 | 1018.0 |
| 20260905094605 | 47 | 144 | 2.0 | 5.0 | 0.00 | 0.00 | 0.00 | 95 | 1017.9 |
| 20260905094102 | 47 | 163 | 3.0 | 5.0 | 0.00 | 0.00 | 0.00 | 95 | 1017.9 |
| 20260905093543 | 47 | 163 | 3.0 | 5.0 | 0.00 | 0.00 | 0.00 | 94 | 1017.8 |
| 20260905093026 | 47 | 181 | 3.0 | 5.0 | 0.00 | 0.00 | 0.00 | 94 | 1017.7 |
| 20260905092609 | 47 | 176 | 327.0 | 327.0 | 0.00 | 0.00 | 0.00 | 94 | 1017.3 |
| 20260905090627 | 47 | 158 | 327.0 | 327.0 | 0.00 | 0.00 | 0.00 | 94 | 1017.2 |
| 20260905090052 | 47 | 174 | 1.0 | 3.0 | 0.00 | 0.00 | 0.00 | 93 | 1017.4 |
| 20260905085548 | 47 | 156 | 1.0 | 3.0 | 0.00 | 0.00 | 0.00 | 93 | 1017.4 |
| 20260905085048 | 47 | 156 | 2.0 | 3.0 | 0.00 | 0.00 | 0.00 | 93 | 1017.3 |
| 20260905084530 | 47 | 160 | 2.0 | 3.0 | 0.00 | 0.00 | 0.00 | 93 | 1017.3 |
| 20260905084030 | 47 | 172 | 2.0 | 2.0 | 0.00 | 0.00 | 0.00 | 93 | 1017.3 |
| 20260905083552 | 48 | 172 | 1.0 | 3.0 | 0.00 | 0.00 | 0.00 | 93 | 1017.3 |
| 20260905083052 | 48 | 173 | 1.0 | 3.0 | 0.00 | 0.00 | 0.00 | 92 | 1017.3 |
| 20260905082534 | 48 | 158 | 1.0 | 3.0 | 0.00 | 0.00 | 0.00 | 92 | 1017.2 |
| 20260905082034 | 48 | 143 | 1.0 | 3.0 | 0.00 | 0.00 | 0.00 | 92 | 1017.2 |
| 20260905081535 | 48 | 160 | 1.0 | 2.0 | 0.00 | 0.00 | 0.00 | 92 | 1017.1 |
| 20260905081036 | 48 | 160 | 1.0 | 2.0 | 0.00 | 0.00 | 0.00 | 92 | 1017.1 |
| 20260905080538 | 48 | 160 | 0.0 | 3.0 | 0.00 | 0.00 | 0.00 | 92 | 1017.3 |
| 20260905080042 | 48 | 160 | 1.0 | 3.0 | 0.00 | 0.00 | 0.00 | 92 | 1017.1 |
| 20260905075544 | 48 | 167 | 1.0 | 3.0 | 0.00 | 0.00 | 0.00 | 92 | 1017.1 |
| 20260905075030 | 48 | 154 | 2.0 | 3.0 | 0.00 | 0.00 | 0.00 | 92 | 1017.0 |
| 20260905074530 | 48 | 154 | 1.0 | 1.0 | 0.00 | 0.00 | 0.00 | 92 | 1017.0 |
| 20260905074030 | 48 | 154 | 0.0 | 0.0 | 0.00 | 0.00 | 0.00 | 92 | 1017.0 |
| 20260905073532 | 48 | 154 | 0.0 | 0.0 | 0.00 | 0.00 | 0.00 | 92 | 1017.1 |
| 20260905073056 | 48 | 154 | 0.0 | 0.0 | 0.00 | 0.00 | 0.00 | 92 | 1017.0 |
| 20260905072537 | 48 | 154 | 0.0 | 0.0 | 0.00 | 0.00 | 0.00 | 92 | 1016.9 |
| 20260905072038 | 48 | 154 | 0.0 | 0.0 | 0.00 | 0.00 | 0.00 | 92 | 1016.9 |
| 20260905071534 | 48 | 154 | 0.0 | 0.0 | 0.00 | 0.00 | 0.00 | 92 | 1017.1 |
| 20260905071037 | 48 | 154 | 0.0 | 0.0 | 0.00 | 0.00 | 0.00 | 92 | 1017.2 |
| 20260905070557 | 48 | 154 | 0.0 | 0.0 | 0.00 | 0.00 | 0.00 | 92 | 1017.1 |
| 20260905070040 | 48 | 154 | 0.0 | 1.0 | 0.00 | 0.00 | 0.00 | 92 | 1017.0 |
| 20260905065542 | 48 | 154 | 0.0 | 3.0 | 0.00 | 0.00 | 0.00 | 92 | 1017.1 |
| 20260905065044 | 48 | 154 | 1.0 | 3.0 | 0.00 | 0.00 | 0.00 | 92 | 1017.2 |
| 20260905064606 | 48 | 154 | 1.0 | 3.0 | 0.00 | 0.00 | 0.00 | 92 | 1017.1 |
| 20260905064108 | 48 | 154 | 0.0 | 0.0 | 0.00 | 0.00 | 0.00 | 93 | 1017.3 |
| 20260905063551 | 48 | 154 | 0.0 | 0.0 | 0.00 | 0.00 | 0.00 | 93 | 1017.3 |
| 20260905063030 | 48 | 154 | 0.0 | 0.0 | 0.00 | 0.00 | 0.00 | 93 | 1017.4 |
| 20260905062531 | 48 | 154 | 0.0 | 0.0 | 0.00 | 0.00 | 0.00 | 93 | 1017.4 |
| 20260905062032 | 48 | 154 | 0.0 | 0.0 | 0.00 | 0.00 | 0.00 | 93 | 1017.3 |
| 20260905061539 | 48 | 154 | 0.0 | 0.0 | 0.00 | 0.00 | 0.00 | 93 | 1017.4 |
| 20260905061102 | 48 | 154 | 0.0 | 0.0 | 0.00 | 0.00 | 0.00 | 93 | 1017.2 |
| 20260905060541 | 48 | 154 | 0.0 | 0.0 | 0.00 | 0.00 | 0.00 | 93 | 1017.3 |
| 20260905060046 | 48 | 154 | 0.0 | 0.0 | 0.00 | 0.00 | 0.00 | 93 | 1017.3 |
| 20260905055529 | 48 | 154 | 0.0 | 0.0 | 0.00 | 0.00 | 0.00 | 93 | 1017.4 |
| 20260905055031 | 48 | 154 | 0.0 | 2.0 | 0.00 | 0.00 | 0.00 | 92 | 1017.3 |
| 20260905054535 | 48 | 154 | 0.0 | 2.0 | 0.00 | 0.00 | 0.00 | 92 | 1017.3 |
| 20260905054036 | 48 | 165 | 1.0 | 2.0 | 0.00 | 0.00 | 0.00 | 92 | 1017.3 |
| 20260905053535 | 48 | 172 | 1.0 | 2.0 | 0.00 | 0.00 | 0.00 | 92 | 1017.4 |
| 20260905053036 | 48 | 179 | 1.0 | 3.0 | 0.00 | 0.00 | 0.00 | 92 | 1017.4 |
| 20260905052600 | 48 | 150 | 1.0 | 3.0 | 0.00 | 0.00 | 0.00 | 92 | 1017.4 |
| 20260905052040 | 48 | 122 | 2.0 | 3.0 | 0.00 | 0.00 | 0.00 | 92 | 1017.5 |
| 20260905051602 | 48 | 172 | 1.0 | 3.0 | 0.00 | 0.00 | 0.00 | 92 | 1017.6 |
| 20260905051041 | 48 | 172 | 1.0 | 3.0 | 0.00 | 0.00 | 0.00 | 92 | 1017.5 |
| 20260905050544 | 48 | 176 | 2.0 | 3.0 | 0.00 | 0.00 | 0.00 | 92 | 1017.4 |
| 20260905050027 | 49 | 160 | 2.0 | 3.0 | 0.00 | 0.00 | 0.00 | 92 | 1017.4 |
| 20260905045550 | 49 | 189 | 2.0 | 5.0 | 0.00 | 0.00 | 0.00 | 92 | 1017.6 |
| 20260905045036 | 49 | 196 | 3.0 | 5.0 | 0.00 | 0.00 | 0.00 | 92 | 1017.5 |
| 20260905044536 | 49 | 195 | 4.0 | 5.0 | 0.00 | 0.00 | 0.00 | 92 | 1017.5 |
| 20260905044041 | 48 | 211 | 3.0 | 4.0 | 0.00 | 0.00 | 0.00 | 92 | 1017.6 |
| 20260905043546 | 48 | 208 | 1.0 | 3.0 | 0.00 | 0.00 | 0.00 | 92 | 1017.5 |
| 20260905043029 | 48 | 183 | 2.0 | 4.0 | 0.00 | 0.00 | 0.00 | 92 | 1017.5 |
| 20260905042532 | 48 | 174 | 2.0 | 4.0 | 0.00 | 0.00 | 0.00 | 92 | 1017.5 |
| 20260905042053 | 48 | 179 | 2.0 | 4.0 | 0.00 | 0.00 | 0.00 | 92 | 1017.4 |
| 20260905041531 | 48 | 169 | 2.0 | 3.0 | 0.00 | 0.00 | 0.00 | 92 | 1017.4 |
| 20260905041034 | 48 | 155 | 1.0 | 3.0 | 0.00 | 0.00 | 0.00 | 92 | 1017.6 |
| 20260905040538 | 48 | 155 | 1.0 | 3.0 | 0.00 | 0.00 | 0.00 | 92 | 1017.5 |
| 20260905040101 | 48 | 153 | 1.0 | 3.0 | 0.00 | 0.00 | 0.00 | 92 | 1017.6 |
| 20260905035542 | 48 | 171 | 1.0 | 3.0 | 0.00 | 0.00 | 0.00 | 92 | 1017.9 |
| 20260905035042 | 48 | 166 | 1.0 | 2.0 | 0.00 | 0.00 | 0.00 | 92 | 1017.9 |
| 20260905034545 | 49 | 162 | 1.0 | 2.0 | 0.00 | 0.00 | 0.00 | 92 | 1017.9 |
| 20260905034031 | 48 | 187 | 1.0 | 3.0 | 0.00 | 0.00 | 0.00 | 92 | 1017.7 |
| 20260905033534 | 49 | 162 | 2.0 | 3.0 | 0.00 | 0.00 | 0.00 | 92 | 1017.6 |
| 20260905033032 | 49 | 154 | 2.0 | 4.0 | 0.00 | 0.00 | 0.00 | 92 | 1017.8 |
| 20260905032533 | 49 | 134 | 2.0 | 4.0 | 0.00 | 0.00 | 0.00 | 92 | 1017.8 |
| 20260905032036 | 49 | 134 | 2.0 | 6.0 | 0.00 | 0.00 | 0.00 | 92 | 1017.9 |
| 20260905031137 | 49 | 160 | 327.0 | 327.0 | 0.00 | 0.00 | 0.00 | 92 | 1018.1 |
| 20260905024543 | 49 | 179 | 2.0 | 5.0 | 0.00 | 0.00 | 0.00 | 92 | 1018.0 |
| 20260905024044 | 49 | 186 | 3.0 | 8.0 | 0.00 | 0.00 | 0.00 | 92 | 1017.9 |
| 20260905023607 | 49 | 188 | 4.0 | 9.0 | 0.00 | 0.00 | 0.00 | 92 | 1018.1 |
| 20260905023030 | 49 | 209 | 7.0 | 9.0 | 0.00 | 0.00 | 0.00 | 91 | 1017.9 |
| 20260905022535 | 50 | 212 | 4.0 | 6.0 | 0.00 | 0.00 | 0.00 | 90 | 1018.0 |
| 20260905022036 | 50 | 233 | 4.0 | 6.0 | 0.00 | 0.00 | 0.00 | 90 | 1018.1 |
| 20260905021539 | 50 | 227 | 4.0 | 6.0 | 0.00 | 0.00 | 0.00 | 89 | 1018.1 |
| 20260905021038 | 50 | 240 | 3.0 | 4.0 | 0.00 | 0.00 | 0.00 | 89 | 1018.1 |
| 20260905020540 | 50 | 263 | 2.0 | 7.0 | 0.00 | 0.00 | 0.00 | 88 | 1018.1 |
| 20260905020030 | 51 | 251 | 5.0 | 7.0 | 0.00 | 0.00 | 0.00 | 88 | 1018.3 |
| 20260905015531 | 51 | 260 | 3.0 | 5.0 | 0.00 | 0.00 | 0.00 | 87 | 1018.3 |
| 20260905015054 | 51 | 214 | 3.0 | 5.0 | 0.00 | 0.00 | 0.00 | 87 | 1018.2 |
| 20260905014532 | 51 | 212 | 3.0 | 5.0 | 0.00 | 0.00 | 0.00 | 86 | 1018.1 |
| 20260905014036 | 51 | 210 | 4.0 | 7.0 | 0.00 | 0.00 | 0.00 | 86 | 1018.0 |
| 20260905013539 | 51 | 221 | 4.0 | 7.0 | 0.00 | 0.00 | 0.00 | 85 | 1018.1 |
| 20260905013038 | 52 | 244 | 4.0 | 6.0 | 0.00 | 0.00 | 0.00 | 84 | 1018.1 |
| 20260905012541 | 52 | 233 | 4.0 | 6.0 | 0.00 | 0.00 | 0.00 | 84 | 1018.1 |
| 20260905012042 | 52 | 233 | 5.0 | 8.0 | 0.00 | 0.00 | 0.00 | 83 | 1018.1 |
| 20260905011542 | 52 | 212 | 4.0 | 11.0 | 0.00 | 0.00 | 0.00 | 81 | 1018.1 |
| 20260905011045 | 53 | 195 | 7.0 | 11.0 | 0.00 | 0.00 | 0.00 | 81 | 1018.1 |
| 20260905010528 | 52 | 287 | 1.0 | 2.0 | 0.00 | 0.00 | 0.00 | 82 | 1018.0 |
| 20260905010029 | 52 | 32 | 0.0 | 1.0 | 0.00 | 0.00 | 0.00 | 82 | 1017.9 |
| 20260905005530 | 52 | 32 | 0.0 | 1.0 | 0.00 | 0.00 | 0.00 | 82 | 1017.9 |
| 20260905005037 | 52 | 108 | 0.0 | 0.0 | 0.00 | 0.00 | 0.00 | 82 | 1017.6 |
| 20260905004542 | 53 | 136 | 0.0 | 1.0 | 0.00 | 0.00 | 0.00 | 82 | 1017.5 |
| 20260905004044 | 53 | 136 | 0.0 | 1.0 | 0.00 | 0.00 | 0.00 | 82 | 1017.5 |
| 20260905003547 | 53 | 136 | 0.0 | 0.0 | 0.00 | 0.00 | 0.00 | 82 | 1017.5 |
| 20260905003048 | 53 | 136 | 0.0 | 0.0 | 0.00 | 0.00 | 0.00 | 81 | 1017.6 |
| 20260905002529 | 53 | 136 | 0.0 | 1.0 | 0.00 | 0.00 | 0.00 | 81 | 1017.7 |
| 20260905002031 | 53 | 136 | 0.0 | 1.0 | 0.00 | 0.00 | 0.00 | 81 | 1017.7 |
| 20260905001553 | 53 | 136 | 0.0 | 2.0 | 0.00 | 0.00 | 0.00 | 81 | 1017.7 |
| 20260905001034 | 53 | 115 | 1.0 | 2.0 | 0.00 | 0.00 | 0.00 | 80 | 1017.6 |
| 20260905000536 | 53 | 122 | 1.0 | 2.0 | 0.00 | 0.00 | 0.00 | 81 | 1017.5 |
| 20260905000059 | 53 | 129 | 1.0 | 2.0 | 0.00 | 0.00 | 0.00 | 81 | 1017.6 |
| 20260904235539 | 54 | 129 | 0.0 | 0.0 | 0.00 | 0.00 | 0.00 | 81 | 1017.8 |
| 20260904235040 | 54 | 129 | 0.0 | 1.0 | 0.00 | 0.00 | 0.00 | 80 | 1017.6 |
| 20260904234540 | 54 | 128 | 0.0 | 2.0 | 0.00 | 0.00 | 0.00 | 79 | 1017.7 |
| 20260904234038 | 54 | 128 | 1.0 | 2.0 | 0.00 | 0.00 | 0.00 | 79 | 1017.6 |
| 20260904233544 | 54 | 192 | 0.0 | 3.0 | 0.00 | 0.00 | 0.00 | 79 | 1017.5 |
| 20260904233047 | 54 | 192 | 1.0 | 3.0 | 0.00 | 0.00 | 0.00 | 79 | 1017.5 |
| 20260904232528 | 54 | 183 | 1.0 | 3.0 | 0.00 | 0.00 | 0.00 | 79 | 1017.4 |
| 20260904232029 | 54 | 170 | 0.0 | 0.0 | 0.00 | 0.00 | 0.00 | 79 | 1017.4 |
| 20260904231554 | 54 | 187 | 0.0 | 0.0 | 0.00 | 0.00 | 0.00 | 79 | 1017.4 |
| 20260904231036 | 54 | 187 | 0.0 | 3.0 | 0.00 | 0.00 | 0.00 | 79 | 1017.3 |
| 20260904230538 | 54 | 166 | 1.0 | 3.0 | 0.00 | 0.00 | 0.00 | 78 | 1017.3 |
| 20260904230039 | 54 | 171 | 2.0 | 3.0 | 0.00 | 0.00 | 0.00 | 78 | 1017.1 |
| 20260904225541 | 54 | 205 | 2.0 | 3.0 | 0.00 | 0.00 | 0.00 | 77 | 1017.1 |
| 20260904225045 | 54 | 197 | 0.0 | 5.0 | 0.00 | 0.00 | 0.00 | 78 | 1017.1 |
| 20260904224547 | 54 | 161 | 3.0 | 5.0 | 0.00 | 0.00 | 0.00 | 77 | 1017.0 |
| 20260904224028 | 54 | 202 | 2.0 | 4.0 | 0.00 | 0.00 | 0.00 | 77 | 1017.1 |
| 20260904223530 | 54 | 209 | 2.0 | 4.0 | 0.00 | 0.00 | 0.00 | 78 | 1017.0 |
| 20260904223037 | 55 | 165 | 3.0 | 5.0 | 0.00 | 0.00 | 0.00 | 77 | 1016.9 |
| 20260904222539 | 55 | 188 | 3.0 | 7.0 | 0.00 | 0.00 | 0.00 | 77 | 1016.8 |
| 20260904222041 | 55 | 207 | 4.0 | 7.0 | 0.00 | 0.00 | 0.00 | 77 | 1016.8 |
| 20260904221543 | 55 | 195 | 3.0 | 4.0 | 0.00 | 0.00 | 0.00 | 78 | 1016.8 |
| 20260904221045 | 55 | 178 | 2.0 | 4.0 | 0.00 | 0.00 | 0.00 | 77 | 1016.8 |
| 20260904220527 | 55 | 154 | 3.0 | 4.0 | 0.00 | 0.00 | 0.00 | 77 | 1016.8 |
| 20260904220033 | 55 | 191 | 2.0 | 4.0 | 0.00 | 0.00 | 0.00 | 78 | 1017.0 |
| 20260904215536 | 55 | 160 | 3.0 | 4.0 | 0.00 | 0.00 | 0.00 | 78 | 1016.9 |
| 20260904215037 | 55 | 183 | 2.0 | 6.0 | 0.00 | 0.00 | 0.00 | 79 | 1016.9 |
| 20260904214535 | 55 | 244 | 1.0 | 7.0 | 0.00 | 0.00 | 0.00 | 78 | 1016.9 |
| 20260904214037 | 56 | 206 | 5.0 | 7.0 | 0.00 | 0.00 | 0.00 | 78 | 1016.9 |
| 20260904213559 | 56 | 205 | 4.0 | 7.0 | 0.00 | 0.00 | 0.00 | 77 | 1016.8 |
| 20260904213100 | 56 | 174 | 3.0 | 6.0 | 0.00 | 0.00 | 0.00 | 77 | 1016.8 |
| 20260904212540 | 56 | 206 | 3.0 | 5.0 | 0.00 | 0.00 | 0.00 | 76 | 1016.6 |
| 20260904212041 | 57 | 224 | 3.0 | 6.0 | 0.00 | 0.00 | 0.00 | 76 | 1016.5 |
| 20260904211546 | 57 | 197 | 3.0 | 6.0 | 0.00 | 0.00 | 0.00 | 75 | 1016.5 |
| 20260904211047 | 57 | 185 | 2.0 | 4.0 | 0.00 | 0.00 | 0.00 | 75 | 1016.5 |
| 20260904205050 | 57 | 183 | 2.0 | 6.0 | 0.00 | 0.00 | 0.00 | 75 | 1016.5 |
| 20260904204530 | 57 | 220 | 3.0 | 6.0 | 0.00 | 0.00 | 0.00 | 74 | 1016.6 |
| 20260904204052 | 57 | 190 | 5.0 | 6.0 | 0.00 | 0.00 | 0.00 | 74 | 1016.5 |
| 20260904203534 | 58 | 220 | 3.0 | 5.0 | 0.00 | 0.00 | 0.00 | 73 | 1016.5 |
| 20260904203036 | 58 | 262 | 3.0 | 5.0 | 0.00 | 0.00 | 0.00 | 73 | 1016.5 |
| 20260904202539 | 58 | 182 | 2.0 | 5.0 | 0.00 | 0.00 | 0.00 | 72 | 1016.1 |
| 20260904202044 | 58 | 186 | 4.0 | 6.0 | 0.00 | 0.00 | 0.00 | 72 | 1016.2 |
| 20260904201546 | 58 | 219 | 4.0 | 6.0 | 0.00 | 0.00 | 0.00 | 71 | 1016.3 |
| 20260904201046 | 59 | 202 | 3.0 | 7.0 | 0.00 | 0.00 | 0.00 | 70 | 1016.2 |
| 20260904200544 | 59 | 205 | 4.0 | 6.0 | 0.00 | 0.00 | 0.00 | 69 | 1016.2 |
| 20260904200107 | 59 | 264 | 5.0 | 7.0 | 0.00 | 0.00 | 0.00 | 68 | 1016.2 |
| 20260904195529 | 59 | 221 | 3.0 | 8.0 | 0.00 | 0.00 | 0.00 | 67 | 1016.0 |
| 20260904195032 | 59 | 214 | 4.0 | 8.0 | 0.00 | 0.00 | 0.00 | 67 | 1015.9 |
| 20260904194553 | 60 | 229 | 4.0 | 8.0 | 0.00 | 0.00 | 0.00 | 67 | 1016.1 |
| 20260904194053 | 60 | 241 | 4.0 | 7.0 | 0.00 | 0.00 | 0.00 | 66 | 1016.1 |
| 20260904193536 | 60 | 185 | 4.0 | 7.0 | 0.00 | 0.00 | 0.00 | 65 | 1016.1 |
| 20260904193057 | 60 | 223 | 4.0 | 9.0 | 0.00 | 0.00 | 0.00 | 65 | 1016.0 |
| 20260904192536 | 60 | 199 | 4.0 | 9.0 | 0.00 | 0.00 | 0.00 | 67 | 1016.0 |
| 20260904192038 | 60 | 247 | 7.0 | 9.0 | 0.00 | 0.00 | 0.00 | 65 | 1015.8 |
| 20260904191541 | 60 | 203 | 4.0 | 9.0 | 0.00 | 0.00 | 0.00 | 64 | 1015.5 |
| 20260904190545 | 61 | 228 | 8.0 | 9.0 | 0.00 | 0.00 | 0.00 | 59 | 1015.9 |
| 20260904190046 | 61 | 212 | 3.0 | 8.0 | 0.00 | 0.00 | 0.00 | 57 | 1015.8 |
| 20260904185545 | 61 | 228 | 5.0 | 8.0 | 0.00 | 0.00 | 0.00 | 57 | 1015.9 |
| 20260904185043 | 61 | 198 | 5.0 | 7.0 | 0.00 | 0.00 | 0.00 | 57 | 1015.7 |
| 20260904184607 | 61 | 322 | 1.0 | 10.0 | 0.00 | 0.00 | 0.00 | 54 | 1015.7 |
| 20260904184049 | 61 | 263 | 4.0 | 10.0 | 0.00 | 0.00 | 0.00 | 53 | 1015.6 |
| 20260904183528 | 61 | 210 | 5.0 | 8.0 | 0.00 | 0.00 | 0.00 | 53 | 1015.7 |
| 20260904183032 | 61 | 194 | 2.0 | 7.0 | 0.00 | 0.00 | 0.00 | 53 | 1015.9 |